• In Hungary
  • List of Countries
  • For 7 days
  • Water Temperature
  • Satellite Maps
  • Weather Map
  • News
  • Weather Widgets
  • user-avatar
    Login

    Hourly Weather Kweta

    Today, 17 August, Thursday

    Time Temperature Precipitation Wind Pressure Humidity
    00:00 +24°C° 0 mm 1 mps 615 mmHg 8%
    01:00 +24°C° 0 mm 1 mps 615 mmHg 8%
    02:00 +23°C° 0 mm 1 mps 615 mmHg 8%
    03:00 +23°C° 0 mm 1 mps 614 mmHg 8%
    04:00 +22°C° 0 mm 1 mps 614 mmHg 6%
    05:00 +23°C° 0 mm 1 mps 615 mmHg 5%
    06:00 +25°C° 0 mm 1 mps 616 mmHg 5%
    07:00 +27°C° 0 mm 1 mps 617 mmHg 4%
    08:00 +28°C° 0 mm 1 mps 617 mmHg 4%
    09:00 +29°C° 0 mm 2 mps 617 mmHg 4%
    10:00 +30°C° 0 mm 2 mps 618 mmHg 3%
    11:00 +31°C° 0 mm 2 mps 618 mmHg 3%
    12:00 +32°C° 0 mm 2 mps 618 mmHg 3%
    13:00 +34°C° 0 mm 2 mps 618 mmHg 3%
    14:00 +34°C° 0 mm 2 mps 617 mmHg 3%
    15:00 +34°C° 0 mm 2 mps 617 mmHg 3%
    16:00 +34°C° 0 mm 3 mps 617 mmHg 3%
    17:00 +32°C° 0 mm 2 mps 616 mmHg 4%
    18:00 +31°C° 0 mm 2 mps 616 mmHg 4%
    19:00 +30°C° 0 mm 2 mps 616 mmHg 5%
    20:00 +29°C° 0 mm 1 mps 616 mmHg 6%
    21:00 +27°C° 0 mm 1 mps 615 mmHg 7%
    22:00 +26°C° 0 mm 1 mps 615 mmHg 8%
    23:00 +26°C° 0 mm 1 mps 615 mmHg 8%

    Tomorrow, 18 August, Friday

    Time Temperature Precipitation Wind Pressure Humidity
    00:00 +25°C° 0 mm 1 mps 614 mmHg 8%
    01:00 +24°C° 0 mm 1 mps 614 mmHg 8%
    02:00 +24°C° 0 mm 1 mps 614 mmHg 9%
    03:00 +23°C° 0 mm 1 mps 614 mmHg 9%
    04:00 +20°C° 0 mm 0 mps 614 mmHg 10%
    05:00 +24°C° 0 mm 1 mps 615 mmHg 9%
    06:00 +25°C° 0 mm 1 mps 616 mmHg 8%
    07:00 +27°C° 0 mm 1 mps 617 mmHg 7%
    08:00 +28°C° 0 mm 1 mps 617 mmHg 7%
    09:00 +30°C° 0 mm 1 mps 618 mmHg 7%
    10:00 +31°C° 0 mm 1 mps 618 mmHg 6%
    11:00 +32°C° 0 mm 1 mps 618 mmHg 6%
    12:00 +34°C° 0 mm 2 mps 618 mmHg 6%
    13:00 +34°C° 0 mm 2 mps 618 mmHg 6%
    14:00 +34°C° 0 mm 2 mps 618 mmHg 7%
    15:00 +34°C° 0 mm 2 mps 618 mmHg 7%
    16:00 +34°C° 0 mm 2 mps 617 mmHg 8%
    17:00 +32°C° 0 mm 2 mps 617 mmHg 10%
    18:00 +31°C° 0 mm 2 mps 617 mmHg 11%
    19:00 +30°C° 0 mm 2 mps 617 mmHg 13%
    20:00 +29°C° 0 mm 2 mps 617 mmHg 15%
    21:00 +28°C° 0 mm 1 mps 617 mmHg 17%
    22:00 +27°C° 0 mm 1 mps 617 mmHg 19%
    23:00 +27°C° 0 mm 1 mps 616 mmHg 22%

    Day after tomorrow, 19 August, Saturday

    Time Temperature Precipitation Wind Pressure Humidity
    00:00 +26°C° 0 mm 1 mps 616 mmHg 25%
    01:00 +26°C° 0 mm 1 mps 616 mmHg 27%
    02:00 +25°C° 0 mm 1 mps 616 mmHg 30%
    03:00 +24°C° 0 mm 1 mps 616 mmHg 33%
    04:00 +24°C° 0 mm 1 mps 615 mmHg 36%
    05:00 +25°C° 0 mm 1 mps 616 mmHg 35%
    06:00 +25°C° 0 mm 1 mps 617 mmHg 34%
    07:00 +26°C° 0 mm 1 mps 618 mmHg 32%
    08:00 +28°C° 0 mm 1 mps 618 mmHg 28%
    09:00 +29°C° 0 mm 1 mps 619 mmHg 23%
    10:00 +30°C° 0 mm 1 mps 619 mmHg 18%
    11:00 +31°C° 0 mm 1 mps 619 mmHg 16%
    12:00 +32°C° 0 mm 2 mps 619 mmHg 15%
    13:00 +34°C° 0 mm 2 mps 619 mmHg 13%
    14:00 +34°C° 0 mm 2 mps 619 mmHg 13%
    15:00 +34°C° 0 mm 2 mps 619 mmHg 13%
    16:00 +34°C° 0 mm 2 mps 618 mmHg 13%
    17:00 +34°C° 0 mm 2 mps 618 mmHg 15%
    18:00 +32°C° 0 mm 2 mps 618 mmHg 17%
    19:00 +31°C° 0 mm 2 mps 618 mmHg 18%
    20:00 +30°C° 0 mm 2 mps 618 mmHg 21%
    21:00 +29°C° 0 mm 2 mps 618 mmHg 23%
    22:00 +28°C° 0 mm 2 mps 618 mmHg 26%
    23:00 +27°C° 0 mm 2 mps 618 mmHg 29%

    20 August, Sunday

    Time Temperature Precipitation Wind Pressure Humidity
    00:00 +27°C° 0 mm 2 mps 617 mmHg 32%
    01:00 +26°C° 0 mm 2 mps 617 mmHg 35%
    02:00 +26°C° 0 mm 1 mps 617 mmHg 37%
    03:00 +25°C° 0 mm 1 mps 616 mmHg 39%
    04:00 +24°C° 0 mm 1 mps 616 mmHg 41%
    05:00 +25°C° 0 mm 1 mps 617 mmHg 37%
    06:00 +26°C° 0 mm 1 mps 617 mmHg 33%
    07:00 +27°C° 0 mm 1 mps 618 mmHg 28%
    08:00 +29°C° 0 mm 1 mps 619 mmHg 23%
    09:00 +30°C° 0 mm 1 mps 619 mmHg 18%
    10:00 +31°C° 0 mm 1 mps 620 mmHg 13%
    11:00 +32°C° 0 mm 1 mps 619 mmHg 11%
    12:00 +34°C° 0 mm 2 mps 619 mmHg 10%
    13:00 +35°C° 0 mm 2 mps 619 mmHg 9%
    14:00 +35°C° 0 mm 2 mps 619 mmHg 9%
    15:00 +35°C° 0 mm 3 mps 618 mmHg 9%
    16:00 +35°C° 0 mm 3 mps 618 mmHg 9%
    17:00 +34°C° 0 mm 3 mps 618 mmHg 9%
    18:00 +34°C° 0 mm 2 mps 618 mmHg 10%
    19:00 +32°C° 0 mm 2 mps 618 mmHg 10%
    20:00 +31°C° 0 mm 2 mps 617 mmHg 12%
    21:00 +30°C° 0 mm 1 mps 617 mmHg 13%
    22:00 +29°C° 0 mm 1 mps 617 mmHg 14%
    23:00 +28°C° 0 mm 1 mps 616 mmHg 14%

    21 August, Monday

    Time Temperature Precipitation Wind Pressure Humidity
    00:00 +27°C° 0 mm 1 mps 616 mmHg 14%
    01:00 +26°C° 0 mm 1 mps 615 mmHg 14%
    02:00 +26°C° 0 mm 1 mps 615 mmHg 14%
    03:00 +25°C° 0 mm 1 mps 615 mmHg 14%
    04:00 +24°C° 0 mm 1 mps 615 mmHg 14%
    05:00 +26°C° 0 mm 1 mps 616 mmHg 13%
    06:00 +27°C° 0 mm 1 mps 617 mmHg 11%
    07:00 +29°C° 0 mm 1 mps 617 mmHg 10%
    08:00 +30°C° 0 mm 1 mps 618 mmHg 9%
    09:00 +31°C° 0 mm 1 mps 618 mmHg 8%
    10:00 +32°C° 0 mm 2 mps 618 mmHg 7%
    11:00 +34°C° 0 mm 2 mps 618 mmHg 7%
    12:00 +35°C° 0 mm 2 mps 618 mmHg 7%
    13:00 +36°C° 0 mm 3 mps 618 mmHg 7%
    14:00 +36°C° 0 mm 3 mps 617 mmHg 7%
    15:00 +36°C° 0 mm 3 mps 617 mmHg 7%
    16:00 +36°C° 0 mm 4 mps 617 mmHg 6%
    17:00 +35°C° 0 mm 3 mps 617 mmHg 7%
    18:00 +34°C° 0 mm 3 mps 617 mmHg 8%
    19:00 +32°C° 0 mm 2 mps 616 mmHg 9%
    20:00 +31°C° 0 mm 2 mps 616 mmHg 10%
    21:00 +30°C° 0 mm 1 mps 616 mmHg 11%
    22:00 +29°C° 0 mm 1 mps 616 mmHg 12%
    23:00 +28°C° 0 mm 1 mps 615 mmHg 12%

    22 August, Tuesday

    Time Temperature Precipitation Wind Pressure Humidity
    00:00 +27°C° 0 mm 1 mps 615 mmHg 13%
    01:00 +27°C° 0 mm 1 mps 614 mmHg 13%
    02:00 +26°C° 0 mm 1 mps 614 mmHg 13%
    03:00 +25°C° 0 mm 1 mps 614 mmHg 13%
    04:00 +25°C° 0 mm 1 mps 614 mmHg 13%
    05:00 +26°C° 0 mm 1 mps 615 mmHg 12%
    06:00 +28°C° 0 mm 1 mps 616 mmHg 11%
    07:00 +29°C° 0 mm 1 mps 617 mmHg 10%
    08:00 +30°C° 0 mm 1 mps 617 mmHg 9%
    09:00 +31°C° 0 mm 1 mps 618 mmHg 9%
    10:00 +32°C° 0 mm 1 mps 618 mmHg 9%
    11:00 +33°C° 0 mm 1 mps 618 mmHg 8%
    12:00 +35°C° 0 mm 2 mps 618 mmHg 8%
    13:00 +36°C° 0 mm 2 mps 618 mmHg 8%
    14:00 +36°C° 0 mm 3 mps 617 mmHg 8%
    15:00 +36°C° 0 mm 3 mps 617 mmHg 8%
    16:00 +36°C° 0 mm 3 mps 617 mmHg 8%
    17:00 +35°C° 0 mm 3 mps 617 mmHg 9%
    18:00 +34°C° 0 mm 3 mps 617 mmHg 10%
    19:00 +32°C° 0 mm 2 mps 617 mmHg 11%
    20:00 +31°C° 0 mm 2 mps 617 mmHg 11%
    21:00 +30°C° 0 mm 2 mps 617 mmHg 12%
    22:00 +29°C° 0 mm 1 mps 617 mmHg 13%
    23:00 +29°C° 0 mm 2 mps 616 mmHg 13%
    Show more